Página principal
METAR-TAF:

METAR-TAF

Aeroportos :

Payam

Karaj, Irão

latitude: 35-46-34N, longitude: 050-49-36E, altura: 1271 m

Observação actual do tempo

O boletim foi feito há 22 minutos, às 17:00 UTC
Vento 22 kt de oeste
Temperatura 24°C
Humidade 22%
Pressão 1020 hPa
Visibilidade: 8000 m
Poucas nuvensa uma altura de 3500 ft
Nuvens fragmentadasa uma altura de 10000 ft

METAR: OIIP 181700Z 28022KT 8000 FEW035 BKN100 24/01 Q1020

Hora: 21:52 (17:22 UTC)


TAF: em falta

Observações e previsões do tempo de mais de 4000 aeroportos (mensagens METAR e TAF).

As estações disponíveis são os pontos amarelos e vermelhos sobre o mapa.

Mova o rato sobre o mapa para ver o nome da estação.

Depois clique no ponto para visualizar as observações e previsões meteorológicas.

Para alterar o mapa : clique nos botões verdes com uma cruz preta para aumentar o zoom; no botão verde com uma pitada de zoom; ou nas setas verdes para mapas adjacentes.


METAR-TAF: